Theta_e
334 335 336 336 336 337 337 338 338 338 339 339 339 339 340 340 339 337 337 336 337 337 337 337 335 335 334 334 334 331 329 330 330 328 327 328 329 330 330 331 331 333 333 332 334 336 335 334 333 333 333 333 332 332 334 334 333 332 331 330 327 325 324 327 327 326 323 322 323 323 324 326 329 328 325 326 326 327 328 328 326 326 325 326 325
333 333 335 336 336 337 337 337 338 336 338 339 338 339 339 339 339 338 337 336 336 336 337 337 335 332 333 333 332 329 327 327 327 329 329 331 330 330 331 331 331 331 333 331 332 333 334 332 332 331 332 332 332 333 334 335 334 333 330 325 327 325 323 326 327 325 320 320 320 320 322 324 328 329 327 326 325 326 327 328 326 326 326 326 325
332 333 334 335 336 336 336 336 337 338 338 338 337 337 338 338 337 337 336 335 334 335 336 336 334 331 329 328 328 328 328 331 330 331 333 330 330 331 331 331 331 331 331 333 332 331 332 333 332 331 331 332 332 332 333 333 334 333 331 327 325 326 325 327 328 326 320 322 322 320 317 318 322 324 326 326 326 325 326 327 327 327 327 327 326
330 331 332 334 335 334 335 335 335 336 336 335 334 335 336 336 335 335 335 333 332 334 336 331 330 330 329 329 327 329 328 330 328 329 329 329 329 331 331 330 331 331 330 331 333 332 331 331 331 331 331 331 331 331 332 332 333 332 331 329 327 323 324 324 328 328 325 321 314 317 317 318 313 317 321 324 325 325 326 327 328 328 327 326 325
331 331 332 333 333 333 333 334 334 333 333 333 332 333 335 334 332 332 332 332 331 333 333 329 330 329 324 325 325 325 324 323 323 323 325 329 329 326 330 331 331 330 330 330 329 328 329 331 331 331 331 331 332 332 332 333 333 334 333 331 328 326 325 325 327 328 326 327 321 316 313 313 314 317 320 320 324 324 326 328 329 328 327 326 325
332 331 332 332 333 332 331 332 333 332 331 332 333 333 332 331 331 330 329 328 330 329 328 327 327 326 324 323 322 321 322 323 323 324 325 326 326 328 329 330 329 329 329 329 326 328 327 329 330 330 330 332 332 333 333 333 333 332 333 333 331 330 328 325 325 328 328 327 326 322 320 315 316 318 319 313 323 326 326 328 329 328 328 327 326
333 333 332 332 331 331 331 332 332 331 330 332 333 332 331 330 330 331 329 327 328 328 328 327 325 324 324 323 322 322 322 322 323 326 327 327 328 328 328 329 330 329 329 328 327 327 328 328 329 329 329 329 330 331 332 333 333 333 333 333 332 331 328 323 323 325 326 326 326 325 325 324 324 319 315 315 313 320 324 325 325 328 327 327 327
331 331 332 332 331 331 331 332 331 330 331 332 331 331 331 330 330 330 330 330 329 328 327 326 327 324 324 322 323 323 323 324 326 327 328 330 329 328 327 328 328 328 329 329 329 328 328 327 328 329 328 329 329 329 329 332 333 334 334 333 332 332 329 325 325 327 322 322 325 324 324 325 324 324 322 319 316 314 317 323 325 326 326 326 328
332 331 331 331 331 331 331 331 331 331 331 331 331 330 330 330 330 330 330 331 332 330 327 326 327 324 323 324 323 324 324 325 327 327 327 328 328 328 326 327 327 326 327 328 329 328 328 327 327 328 328 328 330 329 329 330 331 331 332 332 332 331 330 330 327 327 325 323 322 322 323 322 323 324 323 320 315 315 314 317 319 324 325 325 327
333 333 332 332 332 332 332 332 331 331 330 331 330 330 330 330 329 329 328 328 329 328 327 327 326 326 325 324 324 324 322 322 324 324 324 323 327 327 325 325 326 326 326 326 327 328 327 326 326 326 325 326 328 329 329 329 330 330 331 332 332 331 331 330 328 327 327 325 324 323 321 321 321 321 321 319 318 317 315 316 319 319 317 322 326
331 332 332 331 328 324 324 325 328 330 330 331 330 330 330 331 331 330 329 328 328 328 329 328 327 328 326 325 324 324 324 324 322 323 322 322 322 322 325 325 325 325 325 326 325 326 326 326 325 325 325 326 327 326 326 327 328 329 330 331 331 331 330 330 329 329 328 325 325 324 322 321 319 318 319 319 319 317 315 315 318 320 320 320 323
331 331 324 318 319 321 321 321 323 326 330 330 329 329 328 327 327 327 327 327 328 330 330 329 328 328 330 329 329 329 328 327 324 323 323 322 321 322 322 326 328 327 327 326 326 325 324 324 325 325 325 326 326 326 327 327 328 329 329 329 329 330 329 328 327 327 327 326 325 325 324 324 323 322 322 322 320 320 319 318 319 321 321 322 325
328 323 319 319 320 320 319 321 323 325 328 327 326 325 325 325 325 324 323 325 326 328 328 329 328 327 329 331 332 331 331 330 329 326 326 325 323 322 322 323 325 325 326 325 325 324 324 323 323 323 324 325 326 327 328 329 329 329 328 328 327 327 326 326 326 326 327 325 324 325 325 324 324 325 324 323 323 322 321 318 320 322 319 320 323
325 322 319 319 322 323 324 324 325 324 324 323 324 324 324 324 324 323 323 325 326 327 328 327 328 327 326 326 327 326 326 326 326 326 326 325 324 324 323 322 321 321 322 322 324 324 323 324 324 324 324 324 324 325 326 328 329 329 329 328 327 327 327 327 327 327 326 326 327 325 325 325 325 326 325 324 323 321 319 318 319 321 321 320 322
322 320 321 321 324 324 323 323 323 322 321 321 322 322 322 322 322 323 323 323 324 325 326 326 325 326 326 325 325 325 324 322 322 324 323 323 322 320 321 319 320 322 322 324 325 323 323 324 324 323 323 324 326 326 327 328 328 328 328 328 328 328 327 327 326 326 326 327 326 325 325 325 326 326 326 325 325 323 322 320 320 317 317 320 319
321 320 320 320 321 321 322 321 322 322 321 321 321 321 321 321 322 323 323 323 323 325 325 324 324 324 325 325 325 325 324 322 321 321 321 320 320 319 321 320 322 322 323 323 324 324 323 323 323 323 325 326 327 328 327 327 327 327 327 327 327 328 327 326 326 326 326 326 326 326 325 325 327 327 327 327 326 325 324 323 322 320 316 314 318
319 319 319 319 320 320 321 320 321 321 321 321 321 321 320 320 321 321 321 322 323 323 323 323 323 323 323 323 322 321 322 320 319 318 318 319 318 319 319 320 320 320 322 323 323 323 323 323 323 324 326 327 327 327 327 327 327 327 327 326 326 327 327 327 327 326 326 327 327 326 325 325 326 327 327 327 326 325 325 324 324 321 320 317 314
319 319 319 320 319 319 320 320 320 320 320 320 320 321 321 320 319 319 319 320 321 322 322 322 322 321 321 321 322 322 321 320 318 317 317 318 319 320 320 320 320 321 321 322 322 322 322 325 323 324 325 326 326 327 327 327 327 327 327 327 327 327 326 327 327 327 327 327 326 326 326 325 326 327 327 327 326 326 324 324 323 323 322 318 318
316 316 317 317 318 318 319 319 320 320 320 320 320 320 320 320 320 320 319 320 321 321 321 321 321 321 321 321 321 321 320 319 319 320 319 318 319 319 319 320 320 321 321 321 321 322 322 322 323 324 324 323 325 326 327 327 327 326 326 326 327 327 326 326 327 327 327 327 326 325 325 324 325 325 326 327 327 326 325 325 324 324 322 321 319
315 315 316 316 317 318 318 319 319 320 319 319 318 318 318 319 318 318 318 319 319 319 320 319 320 320 320 320 320 319 319 317 317 317 318 320 323 322 321 321 322 322 322 322 322 323 324 324 325 324 324 324 325 326 327 327 326 326 325 324 325 326 326 325 326 327 328 326 326 325 324 325 325 325 325 326 326 326 326 325 324 323 322 321 320
314 314 315 315 316 317 317 317 316 316 317 316 315 315 316 316 315 317 316 316 316 318 318 317 317 318 318 317 317 317 318 319 319 320 320 321 321 321 321 322 323 323 324 324 324 324 324 324 325 325 325 325 325 325 326 326 326 326 326 325 325 326 325 325 325 325 327 327 326 325 326 326 326 325 325 325 325 325 325 324 324 323 322 322 321
313 314 314 314 315 315 315 314 314 314 313 312 312 313 313 313 313 312 312 313 317 318 317 314 314 317 316 316 317 319 320 320 319 318 317 317 317 318 319 320 320 323 323 323 324 324 324 325 325 325 325 325 325 326 326 326 325 325 325 326 326 326 326 326 325 325 325 326 324 325 325 326 327 326 326 325 325 324 324 324 323 323 322 321 322
313 313 313 313 314 314 313 313 312 311 310 310 310 311 311 309 310 311 312 314 317 318 318 317 317 318 319 319 320 319 318 317 316 316 314 314 314 315 318 317 320 321 322 322 323 323 324 324 325 325 325 324 324 325 326 326 326 325 325 326 326 326 325 325 324 324 324 325 324 324 325 326 326 325 325 325 325 325 324 323 323 323 322 321 322
312 313 313 312 312 313 313 312 311 310 309 309 309 308 308 309 311 313 314 315 317 317 316 316 317 318 318 318 317 316 315 314 313 312 311 311 312 314 317 318 319 320 319 320 320 319 319 319 319 319 321 323 324 325 326 327 326 326 326 326 326 325 325 324 324 324 324 325 324 323 324 325 325 325 324 324 324 324 323 323 323 322 322 321 321
311 311 311 310 311 312 312 311 310 309 309 308 308 308 308 309 311 312 312 314 314 314 315 316 317 317 316 316 315 314 312 311 310 310 310 312 313 315 316 317 318 317 317 317 317 316 315 315 314 315 316 317 320 325 325 326 325 325 325 325 325 325 324 323 324 324 326 325 324 324 324 324 323 323 322 322 323 323 323 323 322 322 322 321 321
309 308 307 308 310 312 311 311 311 310 310 308 307 308 309 309 309 309 310 311 311 312 314 315 316 315 314 313 311 310 310 309 310 310 311 313 313 314 314 314 315 314 314 314 314 313 313 312 312 312 313 313 315 318 320 322 324 324 324 324 323 323 323 322 322 323 325 325 325 324 324 324 323 321 321 321 322 323 323 322 321 321 322 321 320
307 306 306 308 310 311 311 311 311 310 309 308 308 308 308 309 309 310 309 309 311 314 315 314 315 314 314 313 313 312 311 309 311 312 312 312 312 311 310 310 311 310 310 310 310 310 311 311 311 311 311 311 312 313 314 314 317 322 322 320 318 320 320 321 321 322 323 323 324 325 324 324 322 321 321 321 321 322 322 321 321 321 321 321 319
306 305 306 308 310 310 310 310 310 310 309 308 308 309 309 309 308 308 309 309 311 312 313 314 314 313 312 312 313 313 311 311 311 311 311 310 310 309 309 309 309 308 308 307 307 307 308 309 310 310 310 310 310 310 310 310 312 318 320 319 321 321 320 322 322 322 322 322 322 323 323 324 324 322 322 321 321 321 321 321 321 322 321 320 319
305 305 306 306 306 306 307 308 309 309 307 307 308 308 308 308 308 308 308 308 307 309 311 312 313 312 312 313 312 312 312 311 310 310 310 310 309 308 308 308 307 306 306 306 306 306 306 307 308 309 309 309 309 308 308 307 308 314 321 318 320 320 320 320 321 322 322 323 322 322 322 322 324 325 319 319 320 320 321 320 320 321 320 320 319
304 304 304 304 304 304 305 306 307 308 307 307 307 307 307 307 307 306 307 308 308 309 310 311 311 311 312 312 312 312 312 311 310 309 309 309 308 308 307 306 305 305 304 305 304 305 305 306 307 307 307 307 306 306 306 304 305 313 322 320 319 318 318 319 320 320 321 321 321 321 324 325 322 320 316 311 310 312 316 320 320 320 320 319 318
303 303 303 303 303 303 303 303 304 306 307 307 307 307 306 306 305 305 306 306 309 309 310 310 310 311 311 311 311 311 311 310 310 309 308 308 307 306 305 305 304 304 303 303 303 303 303 306 306 305 304 304 303 302 298 297 297 303 311 310 310 309 309 310 312 314 316 318 318 319 318 321 320 319 316 308 304 307 308 309 310 314 317 320 318
302 302 302 302 302 302 302 303 305 306 307 306 306 306 305 304 304 305 305 307 308 309 309 309 310 310 310 310 310 310 310 309 309 308 307 306 305 305 304 303 303 302 302 302 302 302 304 305 305 304 302 302 301 299 295 296 297 298 303 306 305 305 305 305 306 307 309 313 316 316 316 317 318 320 317 314 308 304 305 306 306 305 303 301 308
302 301 301 301 301 302 303 305 306 306 306 306 306 305 304 304 304 303 305 306 307 308 308 308 309 309 309 309 309 309 309 309 307 306 306 305 304 303 302 302 301 302 301 300 300 301 302 303 303 302 301 300 299 296 295 296 296 296 298 303 304 303 303 303 303 304 305 307 311 315 314 314 315 318 317 313 311 306 300 299 299 300 301 299 294
302 301 301 301 301 302 304 305 305 305 306 306 306 305 304 304 304 304 304 305 306 306 306 306 307 308 308 308 308 308 308 308 307 306 305 304 303 302 302 302 301 301 300 300 300 300 301 301 302 302 301 299 297 295 294 295 296 296 297 300 303 303 302 302 302 302 303 304 306 309 310 310 310 312 314 315 313 313 312 309 306 304 303 301 298
301 301 301 301 302 303 303 304 303 304 304 304 304 303 303 302 302 303 304 305 305 305 305 305 306 306 307 307 307 307 307 307 306 306 305 304 303 302 301 301 300 299 299 299 299 298 299 300 300 300 300 299 297 294 294 294 295 296 297 299 302 302 302 301 301 301 302 302 304 305 307 307 307 307 307 311 311 309 307 305 303 302 301 300 299
300 300 300 301 302 302 302 302 303 303 303 303 301 301 301 300 300 301 303 304 304 303 303 304 304 305 306 306 306 306 305 305 305 304 304 303 302 301 300 300 300 299 299 299 298 298 298 298 298 298 298 297 296 293 294 294 295 295 298 302 302 301 301 301 300 301 301 302 302 302 303 303 304 304 301 298 303 308 306 304 303 303 303 302 301
301 301 300 301 302 302 302 302 301 302 301 300 300 300 299 298 298 299 300 301 301 301 301 302 302 303 304 305 305 305 304 303 303 302 302 302 301 300 300 300 299 299 298 298 297 297 298 297 297 297 296 296 295 294 293 294 294 295 299 302 301 301 300 299 299 300 300 300 301 302 301 301 301 300 297 297 299 304 306 305 304 303 303 303 303
301 300 301 301 301 301 302 301 300 299 299 299 299 298 297 297 296 297 299 299 300 300 301 301 301 302 303 304 304 304 303 303 302 301 301 301 300 300 299 299 298 298 297 298 298 297 297 297 297 296 296 295 295 294 292 293 294 295 298 300 300 299 299 299 299 299 299 299 300 301 302 300 299 298 295 296 300 305 306 305 303 302 301 301 301
301 300 300 301 301 301 301 300 299 298 298 298 298 297 297 296 295 296 298 298 298 299 300 300 300 301 302 302 303 303 303 302 301 301 301 300 299 298 298 298 298 298 298 298 298 297 297 297 297 297 298 295 294 294 293 292 293 294 297 298 298 297 297 297 298 298 298 297 297 298 298 297 297 296 294 295 297 304 305 304 303 301 300 299 300
301 302 302 301 302 301 300 299 298 298 298 298 297 297 297 295 295 296 297 297 298 299 300 300 300 300 300 301 302 302 302 300 299 299 299 298 298 296 295 296 296 296 296 297 297 297 296 296 297 296 296 296 295 294 293 292 293 293 294 298 297 296 296 296 297 297 296 296 296 296 296 292 292 292 293 293 294 297 302 303 303 301 300 299 302
301 301 301 301 301 300 299 298 299 298 298 298 297 296 295 295 296 296 297 298 299 299 300 299 299 299 300 300 300 300 299 299 298 298 298 297 296 295 295 295 294 295 295 295 295 295 295 295 296 297 296 296 296 295 294 292 292 292 293 295 295 295 295 295 296 296 296 295 295 295 295 293 292 292 292 293 293 294 296 300 300 299 299 300 301
300 300 300 299 299 298 298 298 298 299 298 298 297 296 295 295 296 296 297 298 299 299 299 299 298 298 299 299 299 299 299 299 299 297 296 295 295 295 294 294 294 294 293 293 293 293 293 293 294 296 296 296 297 296 295 293 292 292 292 293 294 294 294 294 294 294 295 295 295 295 294 293 292 292 292 293 293 293 294 298 295 293 293 294 301
299 298 299 300 299 299 299 298 298 298 298 297 296 295 294 294 294 295 297 298 298 298 298 298 298 298 298 298 298 298 298 298 297 296 295 293 293 294 294 293 293 293 293 292 292 292 292 292 293 293 295 295 296 296 294 294 292 292 292 292 292 293 293 295 293 292 293 294 295 295 295 294 292 292 292 292 292 293 295 294 292 293 293 294 297
298 299 299 300 299 299 299 299 299 298 297 296 296 294 294 293 293 295 296 296 295 295 295 295 296 297 297 297 297 297 297 297 297 296 294 292 292 293 293 293 293 293 292 292 292 292 292 291 291 291 292 293 294 295 294 293 293 291 291 291 291 291 292 293 293 291 291 292 292 293 293 291 292 292 292 292 292 292 293 292 293 293 294 295 298
296 297 298 300 299 298 298 298 298 297 296 295 295 294 293 292 292 293 293 294 294 294 294 294 295 295 296 296 296 296 296 296 295 295 293 292 291 292 292 292 293 293 292 292 291 291 291 290 290 290 290 290 292 293 293 293 292 292 291 291 291 291 291 291 292 292 292 292 291 291 291 291 291 292 292 292 292 292 291 292 292 293 297 297 297
296 297 299 299 299 298 297 296 295 295 295 295 294 294 292 291 292 293 292 293 293 293 292 293 294 294 295 295 294 294 294 294 293 293 292 291 291 291 291 291 291 291 291 291 291 291 290 290 289 289 289 289 290 290 290 291 293 293 292 291 291 291 292 292 292 291 291 291 291 291 291 291 291 292 293 292 292 292 291 292 292 294 295 295 295
296 297 298 298 298 297 296 296 295 295 295 294 293 293 292 292 292 291 292 292 292 292 292 292 293 293 293 294 293 293 293 293 292 292 291 291 290 290 290 290 290 289 289 289 289 290 290 289 289 288 289 289 289 288 289 289 290 290 290 291 291 291 292 292 291 291 292 291 291 291 291 291 291 290 291 291 291 291 291 291 292 292 292 293 293
296 297 298 298 298 297 296 296 295 294 294 294 293 292 292 292 291 291 291 291 291 291 291 291 291 292 292 292 291 289 290 289 289 290 289 289 289 289 288 287 287 288 289 288 288 288 288 288 288 288 288 289 288 288 287 287 288 289 289 289 289 289 288 287 288 289 289 291 290 290 290 290 290 290 290 290 290 289 289 288 289 289 290 290 292
296 297 298 298 297 297 296 296 295 295 295 294 293 293 292 292 292 292 292 291 291 290 291 290 291 291 290 291 291 290 289 288 288 288 287 286 286 287 288 288 287 285 286 289 288 287 287 284 286 287 288 288 287 287 286 289 288 289 288 288 288 287 288 288 289 290 290 289 289 288 287 287 287 286 286 286 287 287 287 288 288 288 288 288 288
296 296 297 297 297 296 296 295 295 295 295 294 293 293 293 293 292 292 292 292 291 291 290 290 290 290 290 290 290 290 290 289 289 288 288 288 287 289 288 288 287 290 289 289 289 287 286 286 287 285 285 288 287 286 289 289 289 290 290 289 289 289 289 289 289 289 289 287 286 285 285 285 285 285 285 285 285 285 285 286 286 287 286 286 286
296 295 295 295 295 296 296 295 295 295 295 294 293 293 293 293 293 293 293 292 291 291 290 290 290 289 289 290 289 289 289 289 289 288 288 288 288 288 289 289 289 289 289 289 289 289 289 289 289 286 286 289 289 289 289 290 290 290 289 289 289 289 289 289 289 288 286 285 284 284 284 284 284 284 284 284 284 284 284 284 285 285 285 285 285
Wind_Speed
7 8 8 8 8 7 6 7 8 8 8 9 9 8 7 7 6 6 3 4 4 4 3 3 3 3 1 1 2 3 3 3 3 2 1 1 2 3 4 5 6 5 4 4 6 7 7 6 5 4 4 4 4 5 4 4 5 5 5 6 7 6 5 4 5 5 6 3 2 3 4 1 2 3 4 4 4 3 3 5 4 5 5 4 5
9 8 8 8 7 7 5 5 8 10 8 9 8 8 7 7 7 5 4 4 4 4 4 3 2 1 0 0 0 1 1 2 2 2 3 3 4 5 6 6 6 4 5 7 7 7 5 4 4 5 4 4 5 5 5 4 4 5 2 2 4 7 6 6 5 6 3 6 5 3 2 3 2 3 5 4 3 4 5 5 5 6 6 6 4
10 9 9 8 9 9 7 6 6 8 9 9 7 7 6 6 5 5 4 4 4 4 4 3 3 3 2 1 1 0 2 3 3 4 4 5 5 6 7 6 4 5 6 6 5 4 5 5 5 5 5 5 5 5 5 6 5 6 6 4 4 4 3 3 7 9 5 4 3 4 4 5 4 3 3 5 5 4 4 5 6 7 8 7 6
12 12 11 9 8 8 7 7 7 6 7 8 7 7 6 5 5 5 5 4 3 4 3 3 2 1 1 2 1 3 0 1 2 2 3 3 4 5 5 4 6 5 4 4 4 4 4 5 4 4 5 5 6 6 6 7 6 5 5 6 4 4 5 6 7 8 3 7 2 4 3 4 3 6 6 5 5 4 5 6 5 7 7 5 3
13 13 11 11 10 10 9 7 7 7 7 8 7 7 5 6 6 6 5 5 3 3 4 2 1 0 1 1 2 1 2 3 3 2 1 2 1 2 6 5 5 4 3 4 3 1 2 3 3 3 4 4 5 6 6 6 6 7 7 7 7 6 5 4 5 8 8 8 5 2 1 2 4 2 6 4 5 5 7 7 6 7 7 7 7
15 15 13 11 10 8 7 8 8 7 7 6 7 7 6 6 5 4 3 3 4 3 2 2 1 2 1 2 3 2 3 4 3 2 3 2 0 1 2 3 3 4 5 4 2 3 4 4 4 4 3 4 4 5 5 4 5 6 7 7 8 8 7 5 5 7 10 9 7 2 3 5 4 2 5 5 3 5 4 7 7 7 8 8 8
10 10 10 11 10 9 8 9 8 8 6 6 7 7 7 6 5 5 5 3 2 2 2 2 2 2 2 1 1 0 0 1 1 0 0 1 1 0 2 4 4 4 6 3 3 4 5 4 4 5 5 5 5 5 5 5 5 5 5 7 8 7 5 6 7 5 5 6 7 5 2 0 3 5 6 2 3 4 5 6 6 7 8 9 9
12 13 13 12 11 11 11 10 9 8 6 7 7 7 8 7 6 6 5 5 3 3 1 1 1 1 0 0 1 0 1 2 2 2 1 2 4 2 3 5 4 4 6 5 4 4 4 4 4 5 5 5 5 6 7 5 4 4 6 7 8 7 7 7 8 6 8 6 6 6 7 5 2 3 1 6 2 5 6 3 4 7 5 7 9
12 13 14 13 12 10 9 10 8 8 8 8 7 7 6 6 6 5 5 5 5 4 3 1 1 2 1 0 1 1 0 0 0 0 2 1 4 2 2 4 5 3 4 5 5 5 4 3 3 4 4 5 5 5 5 6 7 7 6 6 7 8 8 8 8 7 7 8 5 6 6 5 5 5 3 3 4 5 5 9 7 5 4 5 5
11 12 13 11 10 8 7 7 8 7 6 7 7 7 7 5 5 5 3 1 1 1 0 1 1 1 1 1 1 3 3 2 2 1 1 2 1 3 2 3 5 6 5 3 5 6 5 4 4 5 6 5 4 5 5 6 7 7 7 7 7 9 7 7 8 8 7 8 9 7 7 6 7 6 5 5 4 4 5 8 8 9 9 8 7
11 11 10 7 6 9 9 6 4 6 6 7 6 6 6 6 6 6 3 3 2 2 3 3 3 2 2 2 2 2 2 1 2 1 1 1 2 1 3 4 4 5 5 6 5 6 5 4 4 6 6 6 6 5 6 6 7 7 7 9 9 10 9 9 10 10 8 6 8 8 9 9 10 10 10 8 7 6 4 4 7 9 10 7 9
10 11 9 11 11 7 5 3 8 2 7 7 5 6 6 6 8 8 6 5 4 4 4 3 2 2 1 1 1 1 1 2 2 2 2 3 2 3 2 4 4 5 5 6 7 5 4 5 5 6 6 6 6 5 6 6 6 7 7 7 6 7 7 7 7 9 9 7 8 8 8 9 9 8 8 8 8 8 8 7 8 7 5 5 4
9 10 10 7 10 11 11 11 7 6 5 7 8 8 7 7 8 9 6 5 6 5 5 4 4 4 4 5 4 4 4 3 3 2 1 2 2 3 2 3 4 4 5 5 7 7 5 5 6 6 6 5 6 6 7 7 7 7 8 8 8 9 9 9 8 8 9 9 8 9 9 8 9 8 5 7 7 5 5 5 4 7 8 6 4
9 12 10 10 7 11 11 8 6 6 7 7 8 9 8 8 7 8 6 6 6 6 5 5 6 4 5 5 4 4 4 4 5 4 4 3 3 3 3 4 4 5 5 5 6 6 4 5 5 5 5 6 6 7 7 7 8 7 7 8 9 9 7 9 8 10 9 11 9 8 9 9 10 8 8 7 8 7 6 7 6 4 4 5 2
8 8 9 11 8 10 9 9 7 8 8 6 6 7 9 8 8 8 8 6 5 5 5 5 5 4 4 4 4 4 4 4 3 3 2 3 3 2 3 3 3 4 5 5 5 5 5 5 5 6 5 6 7 7 7 7 8 8 8 9 8 7 7 8 8 10 11 11 9 9 9 8 9 8 8 8 8 8 9 8 9 9 5 4 5
10 10 10 8 6 4 9 8 7 6 6 7 7 6 8 8 9 8 6 5 5 5 5 4 4 4 6 6 5 4 3 3 4 4 3 2 3 2 4 4 4 5 4 4 6 5 5 6 6 6 6 7 8 8 8 8 8 8 8 8 9 6 8 9 9 9 10 10 10 9 7 7 7 7 8 8 8 8 6 6 7 8 9 7 5
11 9 10 11 11 5 5 10 7 5 6 8 8 7 7 7 8 8 7 5 6 5 5 3 4 5 5 5 4 5 5 5 4 3 3 3 3 3 4 4 4 4 5 4 6 5 5 5 6 6 6 7 8 8 8 7 7 8 8 8 8 7 6 8 8 8 9 9 9 9 8 7 6 6 6 7 7 6 5 5 7 8 8 9 7
12 11 9 10 12 8 4 6 10 7 7 8 8 6 7 6 6 7 6 7 5 5 4 4 4 5 5 5 6 5 4 3 3 3 3 3 4 4 5 5 5 5 5 5 5 6 6 6 6 6 6 6 7 7 7 7 8 8 8 8 8 7 6 7 7 8 9 7 5 6 6 6 5 5 6 7 7 6 6 6 7 5 5 8 7
13 11 8 8 11 10 7 4 8 7 6 8 7 7 8 6 5 7 7 6 5 4 4 4 4 4 3 4 3 4 3 4 4 5 4 4 5 5 5 5 5 5 5 5 6 6 6 6 6 6 6 6 6 7 7 7 7 7 6 6 5 5 6 7 7 8 7 5 6 7 6 6 5 6 6 6 6 6 6 6 6 6 5 3 6
12 9 9 9 8 9 8 7 8 7 6 6 6 7 8 7 6 6 5 5 5 6 6 5 3 5 5 5 5 4 4 3 3 4 5 5 5 5 5 6 6 5 6 6 6 6 7 7 6 6 7 7 7 7 6 6 7 6 7 6 6 6 7 7 6 5 5 6 8 7 7 7 5 5 6 5 6 6 6 6 6 6 5 4 1
12 10 8 10 8 7 6 7 8 6 5 4 6 6 5 5 5 5 7 5 5 4 5 4 5 5 3 4 4 4 4 4 5 6 6 6 6 6 6 6 6 6 6 7 7 7 7 7 7 7 7 7 7 7 6 6 6 6 6 6 6 6 8 7 6 6 6 6 7 6 7 7 6 7 6 6 6 7 7 6 5 5 6 5 5
10 9 7 8 7 7 8 7 6 7 7 7 5 5 5 5 4 5 5 4 5 5 3 3 2 2 3 3 3 4 5 6 7 7 7 7 7 6 6 6 6 6 6 7 8 7 7 8 7 7 7 7 7 7 6 5 5 6 6 6 5 6 6 7 6 7 6 5 3 6 5 6 8 8 6 6 6 6 7 7 6 6 5 5 5
10 9 8 8 7 7 8 8 8 8 6 5 4 4 4 4 4 4 5 4 4 3 3 3 3 3 5 6 6 7 7 7 7 7 8 7 6 6 5 5 6 6 6 6 8 9 9 9 8 7 7 7 8 7 6 5 5 5 6 5 5 6 6 6 5 5 6 4 5 6 7 6 5 5 6 5 6 6 6 6 6 6 6 6 6
8 7 8 7 6 6 7 8 8 6 5 4 3 3 3 3 4 5 6 5 5 3 3 4 3 6 6 6 7 7 8 7 7 6 6 5 5 5 5 6 7 7 8 7 8 10 10 10 10 11 10 8 7 7 6 5 5 5 5 4 4 4 4 4 4 4 5 4 6 6 5 4 5 5 4 5 5 5 5 5 6 6 6 7 8
7 7 8 7 7 8 7 8 7 5 3 3 3 3 4 4 4 6 5 4 5 3 4 4 4 7 7 7 7 6 7 7 6 6 7 6 6 6 7 8 8 8 8 8 9 9 9 9 9 10 10 10 11 9 7 6 5 3 3 4 4 3 3 2 3 3 4 5 6 5 2 2 4 5 5 6 6 8 8 8 9 8 8 7 6
8 8 8 8 8 8 9 8 7 5 5 3 3 4 4 5 4 4 5 5 4 4 4 4 5 6 6 5 5 5 5 6 6 6 7 7 8 9 9 8 9 9 9 9 9 9 9 10 9 10 9 10 8 8 8 8 6 4 3 2 2 1 2 1 1 2 3 1 3 3 4 5 6 6 6 5 5 7 7 8 7 6 7 7 7
10 9 7 7 8 10 10 9 7 5 4 3 4 4 4 5 6 5 4 4 4 5 5 5 7 6 6 7 6 6 6 5 6 7 7 8 8 9 10 9 8 8 9 9 10 10 9 9 9 8 9 9 9 8 8 7 7 6 4 3 1 0 2 1 0 1 1 1 3 2 4 5 5 4 4 6 5 5 6 7 7 7 7 7 7
8 8 9 10 10 10 10 8 7 6 5 4 4 4 5 6 6 4 5 5 4 5 5 6 6 6 6 5 4 5 6 6 7 7 7 7 8 8 8 8 8 9 9 9 9 9 8 7 8 8 8 8 8 7 8 7 7 7 3 2 1 1 2 3 4 5 4 3 1 1 2 1 3 5 6 4 5 6 5 6 5 6 6 7 7
10 9 9 10 9 8 8 8 7 6 7 5 5 6 6 6 6 5 5 5 3 5 6 6 6 6 5 3 4 4 5 6 6 6 7 8 8 8 7 8 8 8 7 8 8 8 8 9 8 8 9 8 7 8 6 7 6 6 4 2 3 4 4 4 3 2 2 2 2 2 1 3 4 6 7 3 3 5 6 6 5 5 7 8 8
11 10 9 8 9 9 8 8 7 8 8 7 6 6 6 6 5 5 5 4 4 6 7 7 7 5 5 5 5 5 5 6 6 7 7 7 7 7 7 8 9 9 8 8 8 8 8 9 9 11 10 8 10 8 12 11 4 3 6 7 7 9 9 8 7 6 5 5 4 2 2 5 6 7 7 6 4 6 6 6 6 7 8 7 8
11 9 8 7 7 8 9 8 8 9 9 7 7 6 6 6 5 5 5 3 5 6 6 6 6 5 5 6 6 6 6 6 6 7 7 8 8 7 8 9 9 9 9 9 8 10 10 8 10 11 12 9 10 11 18 17 17 16 10 9 9 8 8 9 9 10 9 7 4 4 5 5 6 5 2 2 4 4 5 6 9 8 7 7 8
9 9 9 7 7 8 9 10 10 10 9 8 7 6 7 5 4 5 4 5 7 6 6 6 5 5 6 6 5 5 5 6 7 8 9 8 8 8 8 9 9 10 10 9 10 10 9 9 9 10 11 11 11 17 18 17 17 16 13 9 9 9 8 8 8 9 9 9 7 6 7 6 6 6 3 3 4 3 2 1 5 7 8 6 2
7 9 10 8 8 8 12 11 10 9 8 7 8 8 6 4 5 3 5 6 6 6 6 6 5 6 5 5 5 5 5 6 8 8 8 8 8 8 8 9 10 9 8 10 10 10 9 9 9 10 12 13 11 19 19 18 17 16 15 11 9 10 10 10 9 9 9 9 9 7 7 7 7 12 6 5 5 4 6 10 12 13 14 15 12
7 7 11 10 9 9 10 10 10 8 9 7 6 7 5 4 4 5 6 6 6 6 6 5 5 6 6 5 5 6 6 7 7 8 8 8 8 9 8 8 7 7 8 9 9 11 11 10 11 10 9 10 11 18 20 19 18 18 16 12 9 10 11 10 10 9 9 10 10 9 8 8 8 8 6 4 5 6 8 9 10 10 9 13 14
10 10 10 11 12 13 12 11 9 9 8 8 7 6 5 5 5 6 6 6 6 6 5 5 6 6 6 5 5 6 6 7 7 8 7 8 8 8 9 8 8 8 9 10 10 11 10 10 11 11 11 12 13 22 21 21 19 17 16 12 10 11 11 12 11 11 12 11 11 9 9 9 9 7 8 8 7 8 9 10 10 8 8 10 11
10 12 11 12 13 13 13 10 7 8 7 7 6 5 6 5 4 6 6 6 6 6 5 5 6 6 6 5 5 6 6 7 8 8 8 8 8 9 9 7 7 8 8 9 10 11 12 12 11 12 12 13 14 22 21 21 20 16 13 10 10 12 12 11 12 11 12 11 10 10 8 9 8 8 13 15 11 9 10 11 11 11 11 13 13
11 13 12 11 11 12 11 10 8 7 8 6 5 5 6 6 6 5 6 5 6 6 5 6 6 5 5 5 5 5 6 7 7 8 8 8 8 9 8 6 8 9 10 11 10 11 10 12 13 12 13 12 13 19 21 21 20 19 11 10 10 11 11 12 12 11 12 14 12 11 10 10 11 12 14 16 16 15 11 11 11 12 11 12 10
13 12 13 12 9 10 9 11 9 7 6 5 5 6 6 6 6 5 6 5 6 5 5 6 6 5 5 5 5 6 6 7 7 8 7 8 8 7 7 6 8 9 10 9 9 11 12 12 13 13 12 12 13 18 21 19 19 18 13 11 9 10 12 12 12 13 12 12 17 25 17 12 13 13 17 17 15 14 12 10 11 13 14 14 11
14 16 15 12 11 12 10 9 9 9 5 5 5 6 7 7 5 5 5 6 5 5 5 5 5 4 5 5 5 6 7 7 8 7 7 8 7 7 6 6 7 8 9 8 10 11 11 12 11 12 17 15 13 15 21 19 18 16 12 9 9 10 12 12 11 12 12 11 12 15 22 17 15 17 22 20 19 16 13 10 10 14 14 14 9
12 13 14 13 12 12 10 9 9 7 5 5 5 7 8 7 5 4 6 6 5 5 5 5 5 5 5 5 6 7 7 7 7 7 7 7 5 5 6 6 7 7 8 9 10 10 12 11 11 13 12 12 13 13 17 21 20 20 16 10 10 12 12 12 12 12 13 13 13 13 17 21 23 23 21 21 19 18 13 10 11 12 11 12 7
14 14 14 13 11 11 11 9 7 7 6 5 6 9 8 6 5 6 6 5 5 5 6 6 6 6 7 7 7 7 7 7 6 6 6 6 6 6 6 6 7 7 8 10 11 10 11 10 10 11 12 13 11 12 16 22 21 22 21 15 11 11 8 9 11 13 12 12 12 12 12 19 23 23 22 22 21 20 16 12 11 10 9 7 7
12 13 14 12 11 10 9 7 5 7 6 5 7 9 6 6 6 6 5 4 4 5 6 7 7 7 7 8 7 7 7 7 7 6 7 7 6 6 6 6 6 7 10 11 9 9 9 9 9 10 10 11 13 17 13 19 21 21 21 20 13 11 8 8 12 12 11 11 11 11 11 16 23 23 23 22 22 20 19 13 14 15 16 15 11
14 12 13 14 12 11 10 8 6 6 5 6 9 9 6 6 7 5 4 4 5 6 7 7 8 8 8 8 7 8 7 7 7 7 7 7 5 6 6 6 6 8 10 10 10 8 9 9 9 9 9 10 10 11 17 15 19 20 20 20 18 13 14 12 12 12 10 9 9 10 10 17 21 22 22 22 20 19 16 14 18 17 16 15 12
10 12 13 14 13 10 9 7 6 5 5 5 9 9 7 7 5 3 5 5 6 6 6 7 7 8 8 8 8 8 8 7 8 8 7 6 6 5 6 6 6 7 9 10 8 8 9 10 10 9 9 8 8 8 13 17 15 19 18 19 18 17 16 11 11 10 8 9 9 10 11 17 19 20 20 20 21 19 15 17 16 15 14 12 9
12 12 12 13 14 12 10 8 6 6 6 6 6 10 8 6 3 4 4 5 5 6 7 7 7 8 8 7 8 8 8 8 7 7 7 6 6 5 8 6 7 7 8 9 8 8 9 8 9 9 8 8 8 8 9 12 16 16 17 17 17 18 17 15 13 9 9 10 12 15 18 18 18 18 18 17 17 18 19 18 18 16 13 9 8
11 10 12 13 13 12 11 9 5 6 7 6 5 7 9 5 4 5 4 5 6 7 7 7 7 7 8 8 9 9 9 8 8 7 6 5 5 6 7 6 7 7 7 8 7 8 8 8 9 8 8 8 8 8 8 8 9 10 11 15 16 16 15 16 14 13 15 17 17 16 18 17 16 15 13 12 11 12 16 18 18 15 11 10 9
13 11 13 13 12 11 10 10 8 5 7 6 6 6 6 5 6 5 6 6 7 8 8 7 7 8 7 7 9 7 7 7 7 7 7 6 6 6 6 7 7 7 7 7 7 8 8 8 8 8 7 7 8 8 8 8 7 8 8 9 10 11 14 13 11 10 11 11 14 14 12 14 13 17 16 14 14 14 13 12 11 10 9 9 8
11 11 13 13 12 12 10 10 9 6 7 7 7 7 6 6 6 6 6 7 8 7 8 7 8 7 7 8 9 9 9 8 7 7 7 7 7 6 7 7 6 5 7 7 7 7 7 6 7 6 7 8 8 8 8 7 7 7 7 7 8 8 8 7 7 7 8 9 9 11 13 11 11 12 12 10 10 10 10 10 10 9 9 9 9
12 11 13 13 12 12 11 10 8 7 8 8 7 6 7 8 6 6 7 9 8 8 8 8 7 8 8 7 7 7 7 8 7 8 7 5 5 5 6 6 5 3 4 6 8 6 5 4 5 5 7 8 7 7 4 4 7 8 9 8 8 8 7 8 7 6 7 8 9 11 11 11 11 10 10 10 10 10 9 9 10 10 9 9 9
9 8 10 12 11 12 11 10 8 7 8 8 7 6 6 6 6 6 8 10 8 8 8 7 7 8 7 7 7 7 6 7 7 7 7 8 9 10 7 6 6 9 12 10 6 5 3 3 6 4 3 7 7 3 6 12 13 14 14 14 12 12 11 9 10 13 11 11 10 10 10 10 10 10 10 10 9 9 9 10 9 9 9 9 8
10 11 10 10 9 10 10 10 8 6 8 9 8 6 6 5 5 6 9 9 8 8 7 7 7 7 7 7 7 7 6 6 6 6 6 7 7 9 12 12 9 9 10 11 10 9 9 7 5 5 4 5 7 11 13 13 15 15 15 15 15 14 15 14 12 10 12 10 9 10 8 9 8 8 9 8 8 9 9 8 8 8 9 9 8
Wind_Direction
145 141 147 147 146 148 148 148 143 139 143 146 148 150 152 159 169 188 172 154 171 174 190 200 220 259 285 165 159 147 156 157 182 199 196 215 211 211 215 215 213 209 198 198 212 219 215 218 223 228 222 232 242 254 252 236 205 215 213 210 196 186 203 176 182 150 142 137 137 224 255 260 217 185 208 215 208 198 195 193 173 163 179 203 217
141 142 143 139 140 135 139 147 148 145 146 147 150 153 153 154 171 168 158 174 184 189 189 201 214 194 238 307 118 154 147 161 159 144 179 199 208 217 220 222 219 209 201 206 213 210 215 209 214 224 215 223 227 237 245 232 219 219 210 175 215 200 206 188 177 140 190 178 163 179 222 280 272 198 210 223 203 197 199 196 183 178 184 199 202
147 148 147 150 145 144 148 155 161 153 147 147 143 143 150 154 154 162 176 184 191 188 177 209 209 236 207 264 138 59 188 178 179 157 162 179 206 218 226 228 216 213 212 216 220 218 217 214 213 202 204 212 220 226 223 232 227 230 215 206 217 249 226 188 182 190 180 168 151 137 206 189 203 216 224 229 208 195 193 202 191 190 193 194 188
156 152 154 153 151 150 150 155 153 144 141 138 146 151 152 150 152 165 183 193 197 202 195 208 212 206 192 229 222 192 253 130 120 127 140 159 209 221 238 230 221 213 191 213 220 218 215 229 232 217 212 205 214 218 215 219 205 214 209 215 209 228 224 217 202 212 195 136 192 208 183 190 219 212 197 218 193 195 196 208 196 202 201 179 176
152 152 156 156 158 162 164 157 148 149 153 153 153 155 157 159 164 170 177 188 200 210 209 183 162 81 19 59 77 51 34 29 42 26 110 201 180 217 229 223 225 225 206 224 225 241 251 252 245 240 236 222 220 227 225 220 210 213 216 216 202 225 234 230 208 210 221 214 170 132 97 238 228 180 180 223 187 202 210 202 204 195 190 184 192
156 159 158 158 158 158 155 153 156 154 156 157 150 149 147 158 155 149 148 168 190 213 190 135 121 138 78 55 11 27 13 12 358 324 343 353 253 253 289 273 261 260 249 242 242 249 245 232 242 255 255 249 227 234 237 227 222 215 212 223 230 217 238 240 224 204 213 223 235 219 183 182 163 140 170 235 177 219 200 204 205 198 189 183 194
154 147 149 157 164 160 163 162 157 154 153 140 135 137 138 147 152 147 151 152 152 153 137 106 85 98 115 129 136 140 90 270 220 212 184 233 157 159 270 274 262 269 278 271 232 233 236 227 219 231 235 244 255 272 269 246 236 222 214 219 228 232 210 249 242 232 223 224 233 254 295 28 128 141 204 86 222 212 209 200 204 197 191 188 192
159 159 162 166 168 170 166 160 156 155 145 135 130 130 136 145 147 149 147 146 158 149 189 145 177 182 170 98 136 170 184 234 288 324 93 129 119 175 242 263 262 246 274 283 270 255 239 225 215 223 227 231 229 231 245 256 256 241 220 216 224 227 213 217 245 209 195 213 215 225 215 219 171 218 209 218 212 182 204 211 212 213 201 189 190
163 161 165 168 171 169 161 157 153 141 144 139 134 126 120 122 128 134 145 156 164 182 167 176 188 194 184 167 342 270 169 355 357 28 79 95 123 195 233 259 286 274 251 276 283 276 269 263 255 247 244 247 241 239 234 241 248 254 250 228 225 224 220 216 230 225 206 219 190 225 220 212 227 215 210 217 206 191 211 194 193 192 193 204 199
167 166 164 165 163 152 146 136 139 137 129 118 114 113 105 105 106 109 93 78 143 337 233 181 253 295 260 300 300 318 38 12 49 23 358 6 115 190 243 265 269 291 287 267 275 281 284 285 281 273 266 260 253 249 250 246 248 250 250 247 243 245 223 217 209 228 220 220 207 204 207 204 219 228 213 219 252 238 191 196 196 183 186 201 191
165 158 152 121 70 40 17 11 65 120 119 114 109 105 99 95 91 78 59 63 70 85 46 7 6 23 1 5 1 345 322 72 57 350 310 333 281 223 223 251 272 274 293 296 286 285 286 280 265 261 266 270 270 261 252 250 250 247 248 247 243 244 240 223 220 224 219 216 215 208 210 198 200 206 202 200 203 204 200 204 191 197 201 183 196
155 148 108 80 85 82 76 49 323 328 119 112 105 98 97 100 96 85 61 62 58 66 67 34 43 17 31 33 12 2 14 17 25 336 326 297 276 280 241 254 260 271 282 285 285 280 277 279 275 277 273 271 268 264 264 257 251 245 243 240 246 246 247 246 235 224 222 220 210 209 217 214 214 211 202 188 196 215 198 190 188 183 200 206 160
141 116 109 126 135 141 159 165 175 231 126 119 114 106 98 94 96 90 69 59 59 57 59 52 51 34 29 29 20 17 27 32 46 40 0 314 325 315 296 252 261 268 261 264 272 271 266 266 264 264 273 273 272 268 263 261 255 247 239 234 239 240 233 235 244 246 242 228 215 214 221 219 226 216 195 188 202 222 223 189 197 171 184 177 157
125 121 128 146 153 147 158 155 173 137 117 118 117 111 104 95 87 90 79 61 57 50 52 49 45 33 36 39 36 38 40 42 35 33 2 347 344 327 299 284 273 254 267 261 260 272 270 257 265 267 260 268 269 267 268 268 267 261 253 243 239 240 232 232 228 230 237 240 226 211 211 210 217 210 205 197 200 194 195 189 173 189 181 168 122
110 107 138 149 157 142 137 137 139 126 127 119 111 109 109 100 88 80 71 50 55 63 59 53 43 34 37 39 38 40 41 36 30 20 357 340 335 325 305 284 259 268 256 266 277 276 279 286 279 275 273 265 266 269 265 263 260 258 255 253 247 236 227 226 227 226 230 228 217 212 216 213 213 205 197 200 199 200 193 189 174 166 165 167 165
123 130 117 108 97 100 119 110 109 120 123 114 104 104 101 100 95 81 81 77 62 56 54 59 49 41 39 37 26 35 35 40 25 10 351 342 317 302 305 304 295 290 287 287 286 282 282 280 278 274 275 275 273 271 267 260 257 255 253 250 249 237 231 227 231 230 236 233 227 219 218 213 208 198 195 197 198 198 188 168 181 176 169 179 164
125 124 125 128 114 91 111 118 109 105 106 101 101 97 95 98 102 103 91 71 68 59 47 34 62 60 42 37 23 22 23 16 356 332 325 321 312 304 297 299 301 299 293 289 288 288 280 277 281 282 277 274 273 270 267 263 261 258 256 252 251 243 235 238 233 230 233 232 226 213 213 207 204 193 187 194 197 195 178 162 173 184 186 170 175
118 112 112 123 114 103 66 104 116 111 107 103 101 102 99 92 100 104 95 88 74 69 60 48 51 51 35 25 13 14 0 335 314 315 326 340 337 338 337 332 325 308 299 296 297 295 293 294 287 284 279 274 270 268 267 269 269 267 259 251 244 241 235 239 240 236 235 230 212 220 218 211 195 187 188 190 194 186 184 179 179 189 201 190 178
113 110 115 110 111 114 117 105 98 107 105 102 98 100 101 98 97 96 93 89 90 82 69 51 46 55 39 13 358 342 350 346 345 353 359 359 353 354 347 325 315 323 320 318 313 305 302 298 289 285 282 278 274 274 273 272 271 269 262 263 257 242 242 248 242 233 236 217 203 213 204 218 196 195 193 187 183 181 190 186 193 183 210 273 199
109 112 119 110 111 116 122 119 113 106 103 104 110 104 100 104 99 93 84 79 71 62 60 49 22 41 13 1 1 357 352 359 357 11 6 8 9 359 346 346 341 331 333 324 319 312 307 305 299 292 290 285 283 280 276 268 268 261 258 255 251 245 244 245 248 233 231 203 214 209 198 209 192 192 196 186 173 176 176 182 188 178 175 132 190
112 117 118 116 116 111 98 85 79 82 97 98 91 92 103 102 95 93 96 81 76 78 65 35 33 16 357 2 346 351 5 17 26 25 21 14 8 358 353 340 329 352 341 339 329 321 314 308 305 301 297 297 293 290 281 268 261 264 255 249 249 243 246 247 241 247 238 230 220 212 203 192 190 193 192 183 179 179 178 178 179 174 177 182 182
116 120 120 105 101 103 95 94 108 101 82 75 68 76 74 81 86 83 74 79 90 74 76 45 21 356 16 11 20 27 31 31 30 24 18 10 5 351 336 332 339 346 347 342 340 331 325 317 311 309 305 302 300 289 281 272 258 258 259 246 246 247 246 243 231 235 233 229 202 232 213 187 182 197 183 180 180 174 172 166 167 169 172 159 156
121 124 117 118 122 114 112 105 97 90 87 84 81 92 86 79 68 64 82 81 86 83 68 40 22 32 38 30 32 33 30 28 25 17 17 2 350 337 337 338 345 348 349 348 346 341 335 325 322 320 315 310 303 299 295 287 267 254 257 255 244 245 245 242 215 193 226 226 200 212 209 194 174 186 179 174 166 166 169 170 163 150 156 160 161
115 105 107 113 108 107 106 105 100 102 109 113 114 87 71 73 77 79 79 76 65 51 52 39 32 59 47 46 42 37 31 23 23 6 3 345 343 342 343 351 353 353 354 352 357 353 348 346 346 342 335 320 311 313 313 302 288 277 267 272 273 253 246 244 227 190 182 216 223 219 209 189 171 186 186 175 171 166 163 155 152 164 166 166 181
102 107 115 118 121 127 125 118 116 117 122 123 106 104 98 91 93 90 79 69 69 46 59 42 45 63 47 49 43 35 29 18 12 3 359 352 354 354 356 357 360 357 353 356 358 357 355 351 346 343 340 339 334 332 334 332 319 304 296 289 284 261 241 226 238 232 216 208 224 222 180 176 147 176 178 182 179 180 178 177 182 176 169 174 175
118 114 116 132 139 133 126 121 124 135 132 122 110 104 98 84 64 73 82 70 64 55 49 56 57 62 56 55 45 36 23 11 7 4 3 1 2 5 0 3 1 353 353 356 358 357 360 353 348 343 341 340 336 333 340 340 333 323 323 299 275 239 230 211 214 195 204 215 250 239 211 205 190 181 196 186 180 179 170 183 185 171 176 168 170
126 127 129 130 137 138 133 132 130 125 125 128 114 90 77 76 68 58 64 75 71 60 46 52 56 54 58 50 43 31 16 10 9 10 9 8 10 11 11 6 1 357 360 359 0 359 354 345 343 339 343 341 334 332 329 337 332 326 323 330 299 221 198 207 85 48 53 45 350 273 218 205 209 216 213 203 189 182 181 191 182 180 174 165 172
115 121 128 133 135 133 131 126 120 127 113 83 67 78 81 81 76 61 54 51 46 69 49 52 56 58 58 51 43 36 31 26 21 17 14 15 19 20 16 8 3 3 1 1 357 352 344 341 341 342 339 334 330 330 331 334 330 323 321 335 336 340 20 38 43 40 28 30 26 12 19 269 217 210 225 206 188 186 185 189 183 177 168 163 176
114 118 123 126 128 122 117 120 131 122 101 94 90 85 81 70 64 55 56 46 31 69 68 54 57 59 53 39 35 35 48 42 29 24 21 22 22 19 10 6 7 4 1 356 354 351 347 346 344 345 346 341 338 337 328 324 319 324 321 354 355 11 23 18 12 54 67 49 350 333 154 209 229 231 232 240 189 171 177 181 179 168 164 181 186
118 118 117 116 115 115 116 126 130 112 108 106 95 86 78 78 65 55 57 28 48 55 59 52 49 48 47 41 38 38 40 43 27 26 24 23 23 17 12 12 12 10 2 3 355 357 355 352 356 1 3 358 2 354 346 352 350 334 25 25 31 29 29 27 20 18 31 46 46 352 306 248 241 231 207 180 176 181 183 174 159 167 179 182 183
123 118 109 105 105 104 106 107 106 113 115 108 103 95 85 75 65 64 57 40 61 61 62 59 52 41 53 47 42 42 42 36 29 29 28 28 25 20 15 16 12 11 7 3 358 4 8 5 16 20 18 14 14 7 3 28 27 32 45 43 43 35 32 33 29 26 25 22 22 14 354 310 292 297 345 117 164 206 201 143 139 170 189 179 174
124 118 107 92 90 96 99 111 118 120 117 115 108 99 88 80 72 65 56 55 58 55 57 53 45 44 52 50 38 42 43 36 36 36 34 30 26 22 22 20 16 13 10 6 12 14 13 13 25 25 23 18 21 10 13 22 32 33 40 51 48 45 40 36 32 31 21 14 16 21 12 354 336 328 20 75 108 206 262 130 96 91 82 60 98
122 114 102 96 93 103 111 114 116 115 112 109 110 102 95 95 83 70 68 63 62 59 59 52 43 46 51 53 39 41 39 45 45 42 38 35 31 32 30 26 22 15 10 20 15 14 12 17 22 27 23 19 22 9 13 19 23 27 28 45 46 48 47 42 39 33 27 18 12 22 26 20 3 7 32 59 95 71 68 78 71 62 46 39 29
114 110 106 106 104 98 100 108 111 110 105 104 100 101 101 92 87 74 69 63 65 57 58 56 50 46 47 45 45 50 47 51 54 47 40 36 34 35 35 33 27 22 19 20 20 28 26 23 26 27 23 17 21 10 13 15 19 24 26 35 46 46 46 46 40 36 31 27 23 24 31 28 18 15 12 60 78 80 72 66 58 50 41 29 26
125 110 104 107 109 105 105 106 106 107 107 103 91 86 88 72 69 77 69 72 67 64 56 56 55 46 43 39 53 52 52 51 52 49 43 39 35 35 36 33 33 31 34 34 30 33 30 30 31 31 35 29 22 18 18 16 16 21 23 31 43 46 46 44 41 45 42 31 23 22 33 34 30 21 20 39 64 72 78 74 66 54 54 45 39
122 115 116 118 116 117 117 113 112 105 100 96 97 91 86 79 66 75 78 75 78 70 62 56 52 44 38 40 54 60 59 56 50 44 43 41 39 37 38 31 42 47 47 47 43 42 37 36 33 34 36 32 24 21 22 22 20 17 27 41 42 47 45 40 42 36 46 37 30 26 25 30 20 33 29 44 54 68 69 74 74 70 65 61 54
121 115 111 107 111 113 115 111 106 104 103 100 98 93 92 84 73 68 75 78 75 68 60 59 57 44 40 41 55 67 65 61 61 50 45 43 41 39 37 28 50 49 49 46 47 46 43 42 38 36 38 34 29 19 23 26 25 20 33 43 42 48 48 43 39 29 42 40 33 34 39 41 38 38 31 54 59 70 64 61 69 67 63 60 44
114 104 105 108 111 106 105 109 108 98 98 103 101 98 93 86 81 75 79 74 72 68 64 60 54 46 42 46 57 65 68 68 65 57 48 46 44 40 37 26 48 54 54 51 54 56 50 46 43 41 37 41 34 21 21 24 27 26 36 44 41 47 48 45 44 41 38 39 37 38 45 52 52 46 40 41 55 66 59 57 62 64 58 53 37
120 119 118 120 119 116 114 107 107 107 104 103 104 100 93 89 81 82 83 81 75 73 59 54 51 48 52 56 64 66 67 68 68 59 50 50 41 38 29 35 46 55 59 57 56 59 57 50 45 44 41 44 39 26 24 24 26 28 38 48 48 54 51 42 45 44 41 37 34 34 37 46 53 52 51 49 50 64 69 53 63 68 65 59 39
110 111 117 118 117 110 107 112 115 119 119 114 113 101 95 92 89 90 88 86 82 80 77 70 63 54 54 57 61 69 67 70 73 67 57 52 42 39 31 43 49 53 62 57 56 56 58 52 45 45 43 39 40 36 28 29 31 30 29 48 47 50 46 47 49 49 45 37 35 34 33 37 50 51 48 49 52 57 71 63 60 66 68 65 46
119 118 118 115 117 120 126 128 127 127 123 123 113 99 91 89 92 87 85 87 92 95 89 84 74 67 62 59 54 57 64 64 63 62 59 53 41 41 36 44 52 51 61 61 57 54 57 52 45 44 47 42 36 38 33 33 34 35 33 39 48 43 36 47 57 53 46 43 37 36 36 39 49 50 51 51 52 51 54 61 56 63 60 73 64
107 114 112 111 111 112 112 111 120 120 119 113 103 94 91 88 82 79 81 88 97 95 93 88 80 75 70 64 63 59 59 65 62 60 62 55 39 42 44 45 51 58 61 60 57 55 57 55 47 42 41 42 36 35 38 34 35 38 39 41 50 40 29 52 59 55 48 42 40 38 35 40 50 52 51 51 51 54 53 58 53 55 51 50 54
119 111 115 117 117 120 123 124 120 113 110 111 104 97 92 85 80 74 71 78 87 91 92 89 85 80 75 72 68 66 66 65 63 58 62 58 40 48 49 49 57 62 64 63 55 53 57 56 53 43 37 38 36 38 36 40 37 40 41 43 44 45 40 52 60 58 48 45 39 42 34 40 52 52 54 51 49 49 52 52 53 52 51 50 54
108 116 123 118 118 120 118 117 111 111 112 111 107 103 96 88 80 69 74 76 75 76 79 81 81 82 81 77 74 71 69 68 69 67 60 58 51 52 57 52 54 61 66 65 52 53 58 55 54 45 37 30 30 39 38 39 41 40 42 44 45 45 47 55 57 61 52 49 47 43 44 44 49 51 52 52 50 49 48 43 42 44 50 53 58
123 124 124 123 126 127 124 117 118 112 100 95 97 107 104 94 79 74 74 83 84 82 81 79 80 81 81 82 76 73 69 63 56 59 61 52 50 50 64 37 54 58 62 67 56 55 60 60 55 51 41 32 26 34 39 34 38 42 43 44 45 47 47 50 59 54 54 54 54 52 50 50 49 50 50 50 48 44 43 43 40 38 39 40 43
116 120 122 123 123 123 123 119 105 103 96 93 91 104 105 111 90 75 71 76 80 84 82 83 85 84 83 83 81 74 68 63 59 52 56 46 55 56 68 52 56 58 59 65 64 61 61 60 60 51 48 38 31 35 34 28 30 34 38 39 44 45 48 51 58 57 55 51 47 46 46 46 47 45 48 46 47 41 41 41 40 38 40 37 34
125 127 125 123 126 126 127 124 119 106 103 104 103 94 104 103 94 88 83 84 85 87 84 79 82 81 78 79 81 81 77 67 63 63 56 49 43 49 60 61 58 64 62 63 60 62 63 61 61 53 49 46 40 35 30 27 22 33 33 30 33 35 35 42 44 39 40 45 45 44 45 45 47 46 48 49 46 38 38 35 34 32 33 32 34
124 131 129 129 130 132 132 127 119 117 116 115 110 108 107 104 101 100 100 94 88 89 91 88 85 86 83 82 83 78 79 72 56 55 54 51 48 48 58 53 49 52 79 69 67 60 59 62 68 58 58 52 46 37 30 25 21 31 37 37 35 37 33 29 38 37 47 44 47 43 42 36 37 37 35 34 34 37 40 37 33 30 30 28 30
129 133 134 133 135 132 133 125 123 128 124 117 116 118 118 114 115 116 111 97 94 90 90 87 86 84 78 76 79 77 78 81 77 67 59 52 47 40 61 65 40 37 59 87 90 77 64 56 69 61 68 66 54 46 14 28 55 53 54 47 38 35 33 37 23 33 69 53 50 47 41 38 37 39 35 33 27 28 29 31 32 27 25 26 27
118 122 127 129 132 133 133 128 128 131 126 123 124 125 124 125 124 121 109 103 102 95 89 83 83 85 86 84 79 75 74 74 77 78 81 68 54 61 54 74 59 39 53 52 64 89 100 79 76 34 49 85 90 89 59 57 55 57 57 61 61 57 53 48 42 50 58 59 46 51 40 39 35 35 37 31 27 27 26 25 23 26 28 29 26
125 120 124 126 129 130 128 126 130 134 131 131 131 131 126 122 122 123 115 112 110 102 95 93 88 86 89 92 90 84 76 78 75 83 80 86 76 47 49 55 64 64 61 59 61 63 57 48 73 84 39 61 73 62 62 63 61 58 56 55 53 52 49 44 34 55 53 53 48 51 41 39 38 40 41 33 28 32 26 27 23 23 27 23 23